TimeEDT,TemperatureF,Dew PointF,Humidity,Sea Level PressureIn,VisibilityMPH,Wind Direction,Wind SpeedMPH,Gust SpeedMPH,PrecipitationIn,Events,Conditions,WindDirDegrees,DateUTC
12:53 AM,51.1,43.0,74,30.18,10.0,Calm,Calm,-,N/A,,Scattered Clouds,0,2013-04-23 04:53:00
1:53 AM,50.0,43.0,77,30.18,10.0,Calm,Calm,-,N/A,,Clear,0,2013-04-23 05:53:00
2:53 AM,48.0,42.1,80,30.18,10.0,Calm,Calm,-,N/A,,Clear,0,2013-04-23 06:53:00
3:53 AM,46.9,42.1,83,30.19,10.0,Calm,Calm,-,N/A,,Partly Cloudy,0,2013-04-23 07:53:00
4:53 AM,46.0,42.1,86,30.19,10.0,Calm,Calm,-,N/A,,Clear,0,2013-04-23 08:53:00
5:53 AM,44.1,41.0,89,30.19,10.0,Calm,Calm,-,N/A,,Clear,0,2013-04-23 09:53:00
6:53 AM,44.1,41.0,89,30.20,10.0,Calm,Calm,-,N/A,,Clear,0,2013-04-23 10:53:00
7:53 AM,46.0,42.1,86,30.21,10.0,Calm,Calm,-,N/A,,Clear,0,2013-04-23 11:53:00
8:53 AM,51.1,44.1,77,30.22,10.0,Calm,Calm,-,N/A,,Clear,0,2013-04-23 12:53:00
9:53 AM,57.0,43.0,59,30.24,10.0,Calm,Calm,-,N/A,,Clear,0,2013-04-23 13:53:00
10:53 AM,62.1,39.9,44,30.23,10.0,South,9.2,-,N/A,,Clear,180,2013-04-23 14:53:00
11:53 AM,64.9,39.0,39,30.22,10.0,SSW,5.8,-,N/A,,Clear,200,2013-04-23 15:53:00
12:53 PM,66.9,39.9,37,30.18,10.0,Variable,4.6,-,N/A,,Clear,0,2013-04-23 16:53:00
1:53 PM,70.0,41.0,35,30.14,10.0,SSE,6.9,-,N/A,,Clear,160,2013-04-23 17:53:00
2:53 PM,72.0,43.0,35,30.12,10.0,Variable,4.6,-,N/A,,Clear,0,2013-04-23 18:53:00
3:53 PM,72.0,42.1,34,30.10,10.0,Variable,5.8,-,N/A,,Clear,0,2013-04-23 19:53:00
4:53 PM,72.0,43.0,35,30.08,10.0,SW,5.8,-,N/A,,Clear,230,2013-04-23 20:53:00
5:53 PM,71.1,42.1,35,30.06,10.0,South,3.5,-,N/A,,Clear,190,2013-04-23 21:53:00
6:53 PM,71.1,43.0,36,30.04,10.0,West,3.5,-,N/A,,Clear,260,2013-04-23 22:53:00
7:53 PM,69.1,45.0,42,30.04,10.0,Calm,Calm,-,N/A,,Clear,0,2013-04-23 23:53:00
8:53 PM,63.0,48.0,58,30.04,10.0,Calm,Calm,-,N/A,,Clear,0,2013-04-24 00:53:00
9:53 PM,61.0,48.0,62,30.06,10.0,Calm,Calm,-,N/A,,Clear,0,2013-04-24 01:53:00
10:53 PM,59.0,48.9,69,30.06,10.0,Calm,Calm,-,N/A,,Clear,0,2013-04-24 02:53:00
11:53 PM,55.9,48.9,77,30.05,10.0,Calm,Calm,-,N/A,,Clear,0,2013-04-24 03:53:00